Tracking 19559 objects as of 26-Mar-2019
HD Live streaming from Space Station
objects crossing your sky now

IRNSS 1B

Track IRNSS 1B now!
IRNSS 1B is classified as:


NORAD ID: 39635
Int'l Code: 2014-017A
Perigee: 35,710.6 km
Apogee: 35,874.6 km
Inclination: 28.7 °
Period: 1,436.0 minutes
Semi major axis: 42163 km
RCS: Unknown
Launch date: April 4, 2014
Source: India (IND)
Launch site: SRIHARIKOTA (SRI)

IRNSS 1B is an Indian navigation satellite, designed for a 10-year lifetime.
aabbcc
Your satellite tracking list
Your tracking list is empty




NASA's NSSDC Master Catalog

Two Line Element Set (TLE):
1 39635U 14017A   19085.14930368  .00000074  00000-0  00000+0 0  9996
2 39635  28.6624 284.5343 0019455 177.5172 190.0297  1.00275927 18335
Source of the keplerian elements: AFSPC